Hourly Weather Roundup
Issued by NWS Central Illinois

Home | Current Version | Previous Version | Text Only | Print | Product List | Glossary On
Versions: 1 2 3 4 5 6 7 8 9 10 11 12 13 14 15 16 17 18 19 20 21 22 23 24 25 26 27 28 29 30 31 32 33 34 35 36 37 38 39 40 41 42 43 44 45 46 47 48 49 50
000
NZUS43 KILX 230410
HWRILX

AREA WEATHER ROUNDUP
NATIONAL WEATHER SERVICE, LINCOLN IL
1100 PM CDT MON SEP 22 2014


CITY           SKY/WX    TMP DP  RH WIND       PRES   REMARKS
BLOOMINGTON    CLEAR     55  45  69 CALM      30.30R
CHAMPAIGN      CLEAR     51  45  79 NE5       30.28R
DECATUR        CLEAR     52  46  80 CALM      30.28S
FLORA          CLEAR     47  46  97 CALM      30.28R
GALESBURG      CLEAR    N/A N/A N/A CALM      30.26F
JACKSONVILLE   CLEAR     51  48  87 CALM      30.28S
LACON          CLEAR     48  45  90 CALM      30.27S
LAWRENCEVILLE  CLEAR     50  48  93 CALM      30.27R
LITCHFIELD     CLEAR     49  47  93 CALM      30.27S
$$


CITY           SKY/WX    TMP DP  RH WIND       PRES   REMARKS
LINCOLN        CLEAR     50  46  86 CALM      30.27R
MACOMB         CLEAR     46  45  93 CALM      30.29R
MATTOON        CLEAR     50  47  89 CALM      30.27R
MT CARMEL AP   CLEAR     50  48  93 CALM      30.27R
OLNEY-NOBLE AP CLEAR     46  46 100 CALM      30.27R
PARIS          CLEAR     46  46  99 CALM      30.29R
PEORIA         CLEAR     53  47  79 CALM      30.28R
PONTIAC        CLEAR     48  46  93 CALM      30.28S
RANTOUL        CLEAR     54  45  71 CALM      30.29R
ROBINSON       CLEAR     47  47  98 CALM      30.28R FOG
SPRINGFIELD    CLEAR     50  46  86 CALM      30.28R
TAYLORVILLE    CLEAR     50  48  93 CALM      30.27S
$$

...REGIONAL REPORTS...


CITY           SKY/WX    TMP DP  RH WIND       PRES   REMARKS
CHICAGO O`HARE CLEAR     55  46  71 S7        30.27R
KANKAKEE       CLEAR     49  46  89 CALM      30.29R
MOLINE         CLEAR     48  46  93 CALM      30.26S
MOUNT VERNON   CLEAR     46  41  81 CALM      30.28R
PITTSFIELD     CLEAR     51  48  90 CALM      30.28S
QUINCY         CLEAR     57  46  66 SE3       30.26S
ROCKFORD       CLEAR     50  46  86 S3        30.29R
$$


CITY           SKY/WX    TMP DP  RH WIND       PRES   REMARKS
BURLINGTON     CLEAR     51  48  89 CALM      30.26S
CEDAR RAPIDS   CLEAR     50  48  93 CALM      30.24S
DES MOINES     PTCLDY    59  51  75 S8        30.22S
KIRKSVILLE     PTCLDY    51  32  48 CALM      30.26S
OTTUMWA        PTCLDY    54  49  83 S6        30.24F
ST LOUIS       PTCLDY    58  50  75 SW3       30.27S
$$


CITY           SKY/WX    TMP DP  RH WIND       PRES   REMARKS
TERRE HAUTE    CLEAR     48  45  89 CALM      30.28R
EVANSVILLE     CLEAR     54  48  80 CALM      30.27R
INDIANAPOLIS   CLEAR     52  44  74 SE3       30.27S
LAFAYETTE      CLEAR     52  45  77 NE6       30.28S
MADISON        CLEAR     51  49  92 CALM      30.24R
MILWAUKEE      CLEAR     56  47  71 S3        30.25R
$$





USA.gov is the U.S. government's official web portal to all federal, state and local government web resources and services.